EA3GKP-1 Weather Reports


time (UTC)temp
C
wind
direction
speed
KPH
gust
KPH
rain 1hr
cm
rain 24hr
cm
rain mn
cm
humidity
%
barometer
mb
20260503200457 16 31 0.0 0.0 0.00 0.00 0.00 21 1014.0
20260503195519 17 31 0.0 0.0 0.00 0.00 0.00 23 1014.0
20260503194541 17 25 0.0 0.0 0.00 0.00 0.00 20 1014.0
20260503193605 17 25 0.0 0.0 0.00 0.00 0.00 20 1014.0
20260503192630 17 26 0.0 0.0 0.00 0.00 0.00 20 1014.0
20260503191647 17 24 0.0 0.0 0.00 0.00 0.00 18 1014.0
20260503190710 17 26 0.0 0.0 0.00 0.00 0.00 18 1013.0
20260503185733 17 23 0.0 0.0 0.00 0.00 0.00 18 1013.0
20260503184754 17 20 0.0 0.0 0.00 0.00 0.00 16 1013.0
20260503183816 17 20 0.0 0.0 0.00 0.00 0.00 16 1013.0
20260503182838 17 21 0.0 0.0 0.00 0.00 0.00 16 1014.0
20260503181900 17 21 0.0 0.0 0.00 0.00 0.00 16 1014.0
20260503180922 17 21 0.0 0.0 0.00 0.00 0.00 16 1013.0
20260503175945 17 20 0.0 0.0 0.00 0.00 0.00 16 1013.0
20260503175007 17 20 0.0 0.0 0.00 0.00 0.00 16 1013.0
20260503174029 17 19 0.0 0.0 0.00 0.00 0.00 16 1013.0
20260503173054 17 21 0.0 0.0 0.00 0.00 0.00 15 1013.0
20260503171137 17 17 0.0 0.0 0.00 0.00 0.00 15 1013.0
20260503170157 17 17 0.0 0.0 0.00 0.00 0.00 15 1013.0
20260503150623 17 14 0.0 0.0 0.00 0.00 0.00 12 1014.0
20260503131049 18 14 0.0 0.0 0.00 0.00 0.00 13 1015.0
20260503130113 18 14 0.0 0.0 0.00 0.00 0.00 13 1015.0
20260503110537 18 13 0.0 0.0 0.00 0.00 0.00 12 1016.0
20260503081215 18 16 0.0 0.0 0.00 0.00 0.00 13 1016.0
20260503080241 18 16 0.0 0.0 0.00 0.00 0.00 13 1016.0
20260503072406 17 17 0.0 0.0 0.00 0.00 0.00 13 1016.0
20260503071428 17 18 0.0 0.0 0.00 0.00 0.00 13 1016.0
20260503070452 17 16 0.0 0.0 0.00 0.00 0.00 13 1016.0
20260503054748 17 20 0.0 0.0 0.00 0.00 0.00 15 1016.0
20260503053810 17 20 0.0 0.0 0.00 0.00 0.00 15 1016.0
20260503052832 17 20 0.0 0.0 0.00 0.00 0.00 15 1016.0
20260503051854 17 21 0.0 0.0 0.00 0.00 0.00 15 1016.0
20260503050916 17 21 0.0 0.0 0.00 0.00 0.00 15 1016.0
20260503045938 17 19 0.0 0.0 0.00 0.00 0.00 15 1016.0
20260503045000 17 20 0.0 0.0 0.00 0.00 0.00 15 1016.0
20260503044023 17 19 0.0 0.0 0.00 0.00 0.00 15 1016.0
20260503043045 17 19 0.0 0.0 0.00 0.00 0.00 16 1016.0
20260503042113 17 20 0.0 0.0 0.00 0.00 0.00 16 1016.0
20260503041129 17 22 0.0 0.0 0.00 0.00 0.00 16 1016.0
20260503040151 17 23 0.0 0.0 0.00 0.00 0.00 16 1016.0
20260503035213 17 21 0.0 0.0 0.00 0.00 0.00 16 1016.0
20260503034239 17 23 0.0 0.0 0.00 0.00 0.00 16 1016.0
20260503033301 17 23 0.0 0.0 0.00 0.00 0.00 16 1016.0
20260503032320 17 24 0.0 0.0 0.00 0.00 0.00 18 1016.0
20260503031342 17 22 0.0 0.0 0.00 0.00 0.00 16 1016.0
20260503030404 17 23 0.0 0.0 0.00 0.00 0.00 16 1016.0
20260503025430 17 23 0.0 0.0 0.00 0.00 0.00 16 1017.0
20260503024448 17 24 0.0 0.0 0.00 0.00 0.00 16 1017.0
20260503023511 17 24 0.0 0.0 0.00 0.00 0.00 16 1017.0
20260503022537 17 23 0.0 0.0 0.00 0.00 0.00 16 1017.0
20260503021555 17 20 0.0 0.0 0.00 0.00 0.00 16 1017.0
20260503015639 17 21 0.0 0.0 0.00 0.00 0.00 16 1017.0
20260503014701 17 24 0.0 0.0 0.00 0.00 0.00 16 1017.0
20260503013726 17 21 0.0 0.0 0.00 0.00 0.00 16 1017.0
20260503012745 17 21 0.0 0.0 0.00 0.00 0.00 16 1017.0
20260503011811 17 23 0.0 0.0 0.00 0.00 0.00 16 1017.0
20260503010830 17 21 0.0 0.0 0.00 0.00 0.00 16 1017.0
20260503005852 17 21 0.0 0.0 0.00 0.00 0.00 16 1017.0
20260503004914 17 22 0.0 0.0 0.00 0.00 0.00 16 1018.0
20260503003936 17 21 0.0 0.0 0.00 0.00 0.00 16 1018.0
20260503003000 17 20 0.0 0.0 0.00 0.00 0.00 16 1018.0
20260503002024 17 21 0.0 0.0 0.00 0.00 0.00 16 1018.0
20260503001044 17 21 0.0 0.0 0.00 0.00 0.00 16 1018.0
20260503000109 17 19 0.0 0.0 0.00 0.00 0.00 16 1018.0
20260502235127 17 21 0.0 0.0 0.00 0.00 0.00 16 1018.0
20260502234149 17 22 0.0 0.0 0.00 0.00 0.00 16 1018.0
20260502232233 17 23 0.0 0.0 0.00 0.00 0.00 18 1018.0
20260502231256 17 23 0.0 0.0 0.00 0.00 0.00 18 1018.0
20260502230318 17 26 0.0 0.0 0.00 0.00 0.00 18 1018.0
20260502225340 17 24 0.0 0.0 0.00 0.00 0.00 18 1018.0
20260502224402 17 23 0.0 0.0 0.00 0.00 0.00 18 1018.0
20260502223424 17 24 0.0 0.0 0.00 0.00 0.00 18 1018.0
20260502222446 17 24 0.0 0.0 0.00 0.00 0.00 18 1018.0
20260502221509 17 23 0.0 0.0 0.00 0.00 0.00 18 1018.0
20260502220531 17 22 0.0 0.0 0.00 0.00 0.00 18 1019.0
20260502215555 17 24 0.0 0.0 0.00 0.00 0.00 16 1019.0
20260502214615 17 21 0.0 0.0 0.00 0.00 0.00 16 1019.0
20260502213637 17 24 0.0 0.0 0.00 0.00 0.00 18 1019.0
20260502212701 17 23 0.0 0.0 0.00 0.00 0.00 18 1019.0
20260502211721 17 23 0.0 0.0 0.00 0.00 0.00 18 1019.0
20260502210744 17 22 0.0 0.0 0.00 0.00 0.00 16 1019.0
20260502203852 17 23 0.0 0.0 0.00 0.00 0.00 16 1019.0
20260502202912 17 23 0.0 0.0 0.00 0.00 0.00 16 1019.0
20260502201934 17 22 0.0 0.0 0.00 0.00 0.00 16 1019.0
20260502200956 17 21 0.0 0.0 0.00 0.00 0.00 16 1019.0